Flag for Germany Weather past 2 weeks in Vechta, Lower Saxony, Germany

Now
68 °F

Passing clouds.


Feels Like: 68 °F
Forecast: 56 / 73 °F
Wind: 13 mph from Northwest

Location: Bremen Airport

Current Time: Jul 30, 2014 at 3:21:30 AM

Latest Report: Jul 30, 2014 at 2:50 AM


Visibility: N/A

Pressure: 29.77 "Hg

Humidity: 78%

Dew point: 61 °F

Location of VechtaLocation

Historic Weather in Vechta — Graph

°F

Vechta temperature yesterday

Maximum temperature yesterday: 82 °F (at 1:50 PM)
Minimum temperature yesterday: 66 °F (at 4:20 AM)
Average temperature yesterday: 73 °F

Past Weeks' High & Low Weather Summary

 TemperatureHumidityPressure
High90 °F (Jul 19, 1:50 PM)100% (Jul 15, 4:50 AM)30.18 "Hg (Jul 15, 4:50 AM)
Low54 °F (Jul 17, 4:50 AM)27% (Jul 19, 4:20 PM)29.77 "Hg (Jul 20, 1:50 PM)
Average71 °F70%29.98 "Hg
* Reported Jul 15 1:20 AM — Jul 30 1:50 AM, Vechta, Weather by CustomWeather, © 2014

Note: Actual official high and low records may vary slightly from our data, if they occured in-between our weather recording intervals... More about our weather records

Advertising

Vechta weather history for previous 24 hours

 ConditionsComfort  
Time TempWeatherWind HumidityBarometerVisibility
1:50 AM
Jul 30
70 °FPassing clouds.10 mph73%29.77 "HgN/A
1:20 AM70 °FPassing clouds.8 mph73%29.77 "HgN/A
12:50 AM70 °FPassing clouds.9 mph78%29.77 "HgN/A
12:20 AM70 °FClear.10 mph78%29.77 "Hg10 mi
11:50 PM
Jul 29
70 °FClear.10 mph78%29.80 "Hg10 mi
11:20 PM70 °FClear.9 mph78%29.80 "Hg10 mi
10:50 PM72 °FClear.10 mph78%29.80 "Hg10 mi
10:20 PM72 °FBroken clouds.9 mph78%29.80 "HgN/A
9:50 PM72 °FBroken clouds.8 mph78%29.80 "HgN/A
9:20 PM73 °FBroken clouds.7 mph78%29.80 "HgN/A
8:50 PM73 °FBroken clouds.9 mph78%29.77 "HgN/A
8:20 PM73 °FBroken clouds.9 mph83%29.77 "HgN/A
7:50 PM75 °FBroken clouds.9 mph78%29.77 "HgN/A
7:20 PM77 °FPartly sunny.9 mph69%29.77 "HgN/A
6:50 PM77 °FPartly sunny.10 mph69%29.77 "HgN/A
6:20 PM77 °FBroken clouds.9 mph65%29.77 "HgN/A
5:50 PM75 °FBroken clouds.13 mph69%29.77 "HgN/A
5:20 PM77 °FBroken clouds.15 mph69%29.77 "HgN/A
4:50 PM79 °FScattered showers. Scattered clouds.9 mph61%29.77 "HgN/A
4:20 PM77 °FThundershowers. Scattered clouds.10 mph57%29.77 "HgN/A
3:50 PM81 °FSprinkles. Scattered clouds.12 mph58%29.80 "HgN/A
3:20 PM81 °FScattered showers. Scattered clouds.10 mph58%29.80 "HgN/A
2:50 PM81 °FScattered clouds.8 mph54%29.80 "HgN/A
2:20 PM81 °FScattered clouds.7 mph54%29.80 "HgN/A
1:50 PM82 °FScattered clouds.5 mph58%29.83 "HgN/A
1:20 PM81 °FScattered clouds.7 mph54%29.83 "HgN/A
12:50 PM79 °FBroken clouds.7 mph58%29.83 "HgN/A
12:20 PM81 °FScattered clouds.6 mph58%29.83 "HgN/A
11:50 AM79 °FScattered clouds.7 mph58%29.83 "HgN/A
11:20 AM79 °FPartly sunny.8 mph61%29.83 "HgN/A
10:50 AM77 °FScattered clouds.7 mph65%29.86 "HgN/A
10:20 AM77 °FScattered clouds.7 mph65%29.86 "HgN/A
9:50 AM75 °FPassing clouds.6 mph69%29.86 "HgN/A
9:20 AM73 °FPassing clouds.5 mph74%29.86 "HgN/A
8:50 AM72 °FPassing clouds.6 mph78%29.86 "HgN/A
8:20 AM70 °FSunny.7 mph78%29.86 "Hg10 mi
7:50 AM68 °FSunny.6 mph83%29.86 "Hg10 mi
7:20 AM66 °FSunny.6 mph83%29.86 "Hg10 mi
6:50 AM66 °FPassing clouds.5 mph88%29.86 "HgN/A
6:20 AM66 °FPassing clouds.5 mph83%29.86 "HgN/A
5:50 AM66 °FClear.7 mph83%29.86 "Hg10 mi
5:20 AM66 °FClear.10 mph83%29.86 "Hg10 mi
4:50 AM66 °FClear.8 mph83%29.86 "Hg10 mi
4:20 AM66 °FClear.8 mph83%29.86 "Hg10 mi
3:50 AM68 °FClear.7 mph83%29.86 "Hg10 mi
3:20 AM68 °FClear.7 mph83%29.86 "Hg10 mi
Weather by CustomWeather, © 2014

See weather overviewHow to use our weather pages